TimeEST,TemperatureF,Dew PointF,Humidity,Sea Level PressureIn,VisibilityMPH,Wind Direction,Wind SpeedMPH,Gust SpeedMPH,PrecipitationIn,Events,Conditions,WindDirDegrees,DateUTC
12:33 AM,39.2,39.2,100,29.98,1.8,Calm,Calm,-,0.01,Rain,Light Rain,0,2012-12-08 05:33:00
12:44 AM,39.2,39.2,100,29.97,1.8,Calm,Calm,-,0.01,Rain,Light Rain,0,2012-12-08 05:44:00
12:54 AM,39.9,39.9,100,30.00,1.8,Calm,Calm,-,0.01,Rain,Light Rain,0,2012-12-08 05:54:00
1:03 AM,39.2,39.2,100,29.97,2.0,North,3.5,-,0.00,Rain,Light Rain,350,2012-12-08 06:03:00
1:30 AM,39.2,39.2,100,29.96,1.5,Calm,Calm,-,0.00,,Overcast,0,2012-12-08 06:30:00
1:54 AM,39.9,39.9,100,29.98,1.2,Calm,Calm,-,0.00,,Overcast,0,2012-12-08 06:54:00
2:54 AM,39.9,39.9,100,29.97,1.8,NW,3.5,-,N/A,,Overcast,320,2012-12-08 07:54:00
3:52 AM,39.2,39.2,100,29.93,1.0,Calm,Calm,-,N/A,,Mist,0,2012-12-08 08:52:00
3:54 AM,39.9,39.9,100,29.95,1.0,Calm,Calm,-,N/A,,Mist,0,2012-12-08 08:54:00
4:54 AM,39.9,39.0,97,29.94,1.2,NNE,3.5,-,N/A,,Overcast,20,2012-12-08 09:54:00
5:44 AM,39.2,39.2,100,29.91,1.0,Calm,Calm,-,N/A,,Mist,0,2012-12-08 10:44:00
6:54 AM,41.0,39.9,96,29.94,1.0,North,3.5,-,N/A,,Mist,360,2012-12-08 11:54:00
7:54 AM,41.0,41.0,100,29.94,0.8,Calm,Calm,-,N/A,,Mist,0,2012-12-08 12:54:00
8:03 AM,41.0,39.2,93,29.92,0.5,Calm,Calm,-,N/A,Fog,Fog,0,2012-12-08 13:03:00
8:31 AM,41.0,41.0,100,29.93,0.8,NW,3.5,-,N/A,,Mist,320,2012-12-08 13:31:00
8:51 AM,41.0,41.0,100,29.93,1.0,Calm,Calm,-,N/A,,Overcast,0,2012-12-08 13:51:00
8:54 AM,42.1,41.0,96,29.95,1.0,Calm,Calm,-,N/A,,Overcast,0,2012-12-08 13:54:00
9:54 AM,43.0,42.1,97,29.96,1.8,Calm,Calm,-,N/A,,Overcast,0,2012-12-08 14:54:00
10:45 AM,44.6,42.8,93,29.93,2.0,Calm,Calm,-,N/A,,Overcast,0,2012-12-08 15:45:00
10:54 AM,44.1,43.0,96,29.95,1.5,Calm,Calm,-,N/A,,Overcast,0,2012-12-08 15:54:00
11:09 AM,44.6,42.8,93,29.93,3.0,Calm,Calm,-,N/A,,Overcast,0,2012-12-08 16:09:00
11:27 AM,44.6,44.6,100,29.91,2.0,Calm,Calm,-,N/A,,Overcast,0,2012-12-08 16:27:00
11:34 AM,44.6,44.6,100,29.91,2.0,WNW,3.5,-,N/A,,Overcast,300,2012-12-08 16:34:00
11:54 AM,45.0,44.1,97,29.92,2.0,Calm,Calm,-,N/A,,Overcast,0,2012-12-08 16:54:00
12:54 PM,46.0,44.1,93,29.91,2.0,Calm,Calm,-,N/A,,Overcast,0,2012-12-08 17:54:00
1:03 PM,46.4,44.6,93,29.88,1.5,Calm,Calm,-,N/A,,Overcast,0,2012-12-08 18:03:00
1:54 PM,48.0,45.0,89,29.91,1.5,Calm,Calm,-,N/A,,Overcast,0,2012-12-08 18:54:00
2:54 PM,48.0,46.0,93,29.92,1.5,Calm,Calm,-,N/A,,Overcast,0,2012-12-08 19:54:00
3:37 PM,46.4,46.4,100,29.90,1.5,Calm,Calm,-,N/A,,Overcast,0,2012-12-08 20:37:00
3:54 PM,48.0,46.0,93,29.93,1.5,Calm,Calm,-,N/A,,Overcast,0,2012-12-08 20:54:00
4:54 PM,46.9,46.0,97,29.94,1.5,Calm,Calm,-,N/A,,Overcast,0,2012-12-08 21:54:00
5:31 PM,46.4,44.6,93,29.91,1.5,Calm,Calm,-,N/A,,Overcast,0,2012-12-08 22:31:00
5:54 PM,46.9,46.0,97,29.94,1.5,Calm,Calm,-,N/A,,Overcast,0,2012-12-08 22:54:00
6:54 PM,46.9,46.0,97,29.97,1.0,Calm,Calm,-,0.00,Rain,Light Rain,0,2012-12-08 23:54:00
7:08 PM,46.4,46.4,100,29.95,1.2,Calm,Calm,-,0.00,Rain,Light Rain,0,2012-12-09 00:08:00
7:31 PM,46.4,46.4,100,29.95,1.2,Calm,Calm,-,0.00,Rain,Light Rain,0,2012-12-09 00:31:00
7:52 PM,46.4,46.4,100,29.96,1.5,Calm,Calm,-,0.00,,Overcast,0,2012-12-09 00:52:00
7:54 PM,46.9,46.0,97,29.99,1.2,Calm,Calm,-,0.00,,Overcast,0,2012-12-09 00:54:00
8:46 PM,46.4,46.4,100,29.98,1.5,Calm,Calm,-,0.02,Rain,Light Rain,0,2012-12-09 01:46:00
8:54 PM,46.9,46.0,97,30.00,1.5,Calm,Calm,-,0.03,Rain,Light Rain,0,2012-12-09 01:54:00
9:16 PM,46.4,46.4,100,29.99,0.8,Calm,Calm,-,0.00,,Overcast,0,2012-12-09 02:16:00
9:28 PM,46.4,46.4,100,29.99,1.0,Calm,Calm,-,0.00,,Overcast,0,2012-12-09 02:28:00
9:54 PM,46.9,46.0,97,30.02,1.2,Calm,Calm,-,0.00,Rain,Light Rain,0,2012-12-09 02:54:00
10:12 PM,46.4,46.4,100,29.99,0.5,Calm,Calm,-,0.00,Fog,Fog,0,2012-12-09 03:12:00
10:26 PM,46.4,46.4,100,30.00,0.8,Calm,Calm,-,0.00,,Overcast,0,2012-12-09 03:26:00
10:43 PM,46.4,46.4,100,30.01,1.5,Calm,Calm,-,0.00,,Overcast,0,2012-12-09 03:43:00
10:54 PM,46.9,46.0,97,30.03,1.5,Calm,Calm,-,0.00,,Overcast,0,2012-12-09 03:54:00
11:33 PM,46.4,46.4,100,30.01,1.5,SSE,3.5,-,N/A,,Overcast,160,2012-12-09 04:33:00
11:54 PM,46.0,46.0,100,30.04,1.5,Calm,Calm,-,N/A,,Overcast,0,2012-12-09 04:54:00